Regional Weather Roundup
Issued by NWS

Home | Current Version | Previous Version | Graphics & Text | Print | Product List | Glossary On
Versions: 1 2 3 4 5 6 7 8 9 10 11 12 13 14 15 16 17 18 19 20 21 22 23 24 25 26 27 28 29 30 31 32 33 34 35 36 37 38 39 40 41 42 43 44 45 46 47 48 49 50
000
ASUS43 KDMX 181701
RWRIA

WEATHER ROUNDUP FOR IOWA
NATIONAL WEATHER SERVICE DES MOINES IA
1100 AM CST SUN FEB 18 2018

NOTE: "FAIR" INDICATES FEW OR NO CLOUDS BELOW 12,000 FEET WITH NO
SIGNIFICANT WEATHER AND/OR OBSTRUCTIONS TO VISIBILITY.

* - THESE STATIONS ARE NOT NWS STATIONS...THUS NOT UNDER NWS
QUALITY CONTROL.  THEY ALSO DO NOT REPORT WEATHER SUCH
AS PRECIPITATION OR FOG.

IAZ001>003-012>014-020>022-031>034-043>046-181800-
   NORTHWEST IOWA

CITY           SKY/WX    TMP DP  RH WIND       PRES   REMARKS
CARROLL *      CLOUDY    46  36  66 S36G48    29.73F
CHEROKEE *     CLOUDY    42  29  61 S23G35    29.66F
DENISON *      CLOUDY    45  32  61 S29G45    29.73F
LE MARS *      MIX PCPN  39  28  65 S30G39    29.60F WCI  27
ORANGE CITY *  CLOUDY    39  30  70 S28G36    29.60F WCI  28
SHELDON *      CLOUDY    39  28  65 S36G47    29.58F WCI  26
SIOUX CITY     CLOUDY    42  28  57 S33G43    29.65F
SPENCER        MOSUNNY   41  28  60 S32G40    29.62F
STORM LAKE *   SUNNY     41  32  70 S33G43    29.66F
$$

IAZ055>058-069>071-079>083-090>094-181800-
   SOUTHWEST IOWA

CITY           SKY/WX    TMP DP  RH WIND       PRES   REMARKS
ATLANTIC *     CLOUDY    46  34  61 S33G40    29.81F
AUDUBON *      CLOUDY    46  34  61 S24G39    29.80F
CLARINDA *     CLOUDY    48  34  57 S25G32    29.89F
COUNCIL BLFS * CLOUDY    48  34  57 S29G43    29.77F
CRESTON *      CLOUDY    46  28  49 S31G43    29.87F
HARLAN  *      CLOUDY    46  34  61 S28G40    29.80F
LAMONI         CLOUDY    46  27  47 S26G36    29.93F
RED OAK *      CLOUDY    48  32  53 S29G43    29.83F
SHENANDOAH *   CLOUDY    48  30  49 S31G39    29.84F
$$

IAZ047>049-059>061-072>074-084-181800-
   CENTRAL IOWA

CITY           SKY/WX    TMP DP  RH WIND       PRES   REMARKS
AMES           CLOUDY    43  31  62 S20G30    29.87F
ANKENY *       CLOUDY    46  28  49 S24G36    29.90F
BOONE *        MOSUNNY   43  34  70 S23       29.82F
CHARITON *     CLOUDY    45  30  57 S30G44    29.93F
DES MOINES     CLOUDY    47  29  49 S26G36    29.90F
GRINNELL*      CLOUDY    38  32  77 S23       29.96F WCI  28
KNOXVILLE *    CLOUDY    45  30  57 S24G35    29.91F
MARSHALLTOWN   CLOUDY    41  31  67 S22G31    29.90F
NEWTON *       CLOUDY    41  32  70 S20       29.92F
PELLA *        CLOUDY    45  31  58 S20G29    29.95F
$$

IAZ004>006-015-016-023>025-035-036-181800-
   NORTH CENTRAL IOWA

CITY           SKY/WX    TMP DP  RH WIND       PRES   REMARKS
CLARION *        N/A     36  36 100 S28       29.78F WCI  23
ESTHERVILLE    MOSUNNY   34  28  79 S33G40    29.64F WCI  20
FORT DODGE *   SUNNY     38  30  73 S23G31    29.76F WCI  27
MASON CITY     CLOUDY    37  29  72 S23       29.81F WCI  26
WEBSTER CITY * CLOUDY    37  30  75 S25G32    29.77F WCI  26
IOWA FALLS *   FAIR      38  31  75 S28G33    29.85F WCI  27
$$

IAZ007>011-017>019-026>030-037>042-050>054-066-181800-
   NORTHEAST IOWA

CITY           SKY/WX    TMP DP  RH WIND       PRES   REMARKS
CEDAR RAPIDS   FAIR      35  29  78 S18G29    30.01F WCI  24
CHARLES CITY * FAIR      36  32  87 S24G36    29.87F WCI  24
CLINTON *      MIX PCPN  32  28  85 SE17      30.14F WCI  21
DECORAH *      FAIR      32  28  86 S20G29    29.93F WCI  20
DUBUQUE        FAIR      28  24  85 S23       30.07F FOG     WCI  14
MONTICELLO *   FAIR      30  30 100 SE17G26   30.05F WCI  18
OELWEIN *      FAIR      30  30 100 S24       29.95F WCI  16
WATERLOO       FAIR      33  28  81 S23G32    29.92F WCI  21
$$

IAZ064-065-067-068-078-181800-
   EAST CENTRAL IOWA

CITY           SKY/WX    TMP DP  RH WIND       PRES   REMARKS
DAVENPORT      FAIR      34  26  72 SE16      30.13F WCI  24
IOWA CITY      FAIR      37  28  70 SE13      30.07F WCI  29
MT. PLEASANT * CLOUDY    37  32  81 S21G26    30.08F WCI  27
MUSCATINE *    FAIR      34  34 100 S15G22    30.09F WCI  24
QUAD CITIES    FAIR      34  27  75 SE14      30.12F WCI  25
$$

IAZ062-063-075>077-085>089-095>099-181800-
   SOUTHEAST IOWA

CITY           SKY/WX    TMP DP  RH WIND       PRES   REMARKS
BURLINGTON     CLOUDY    40  29  64 S17G23    30.10F WCI  31
FAIRFIELD *    CLOUDY    41  28  60 S21       30.04F
FORT MADISON * CLOUDY    39  34  81 S17       30.10F WCI  30
KEOKUK *       CLOUDY    43  30  61 S12G20    30.10F
OSKALOOSA *    FAIR      39  31  73 S22       29.99F WCI  28
OTTUMWA        CLOUDY    43  30  60 S25       30.00F
WASHINGTON *   CLOUDY    39  34  81 S13G21    30.07S WCI  32
$$

ABBREVIATIONS USED IN REMARKS
   TC - TEMPERATURES IN CELSIUS
  WCI - WIND CHILL INDEX
   HX - HEAT INDEX
  VSB - VISIBILITY
$$





USA.gov is the U.S. government's official web portal to all federal, state and local government web resources and services.